Regional Weather Roundup
Issued by NWS

Home | Current Version | Previous Version | Graphics & Text | Print | Product List | Glossary On
Versions: 1 2 3 4 5 6 7 8 9 10 11 12 13 14 15 16 17 18 19 20 21 22 23 24 25 26 27 28 29 30 31 32 33 34 35 36 37 38 39 40 41 42 43 44 45 46 47 48 49 50
000
ASUS43 KIND 270959
RWRIN

WEATHER ROUNDUP FOR INDIANA
NATIONAL WEATHER SERVICE INDIANAPOLIS IN
500 AM EST MON FEB 27 2017

NOTE: "FAIR" INDICATES FEW OR NO CLOUDS BELOW 12,000 FEET WITH NO
SIGNIFICANT WEATHER AND/OR OBSTRUCTIONS TO VISIBILITY.

* - STATION DOES NOT REPORT WEATHER SUCH AS PRECIPITATION OR FOG.

+ - STATION NOT QUALITY CONTROLLED BY THE NATIONAL WEATHER SERVICE.
    USE DATA WITH CAUTION...ESPECIALLY DEWPOINT AND RELATIVE
    HUMIDITY OBSERVATIONS.

INZ001>003-010>013-019-020-271100-
NORTHWEST INDIANA

CITY           SKY/WX    TMP DP  RH WIND       PRES   REMARKS
KNOX *+        CLEAR     30   5  34 S6        30.15R WCI  24

$$

LMZ046-743>745-271100-
SOUTHERN LAKE MICHIGAN

STATION/POSITION TIME  TEMP    WIND        PRES    WAVE
                       AIR SEA DIR/SP/G            HT
                 (UTC) (F)     (DEG/KT/KT) (MB)    (FT)
BURNS HARBOR     0940   38     220/ 12/ 19 1020.7R
MICHIGAN CITY    0930   37     190/ 14/ 16   N/A

$$

INZ004-005-014>016-021>024-271100-
NORTH CENTRAL INDIANA

CITY           SKY/WX    TMP DP  RH WIND       PRES   REMARKS
GOSHEN         CLEAR     32  22  66 SW8       30.14R WCI  25
SOUTH BEND     PTCLDY    30  22  72 SW7       30.14R WCI  23

$$

INZ006>009-017-018-025>027-271100-
NORTHEAST INDIANA

CITY           SKY/WX    TMP DP  RH WIND       PRES   REMARKS
ANGOLA *+      MOCLDY    32  25  74 S5        30.14R WCI  27
FORT WAYNE     CLOUDY    32  22  66 SW6       30.16R WCI  26
KENDALLVILLE + PTCLDY    33  24  68 SW5       30.15R WCI  28

$$

INZ028-029-035-036-043>045-051>053-271100-
WEST CENTRAL INDIANA

CITY           SKY/WX    TMP DP  RH WIND       PRES   REMARKS
LAFAYETTE      MOCLDY    31  24  75 CALM      30.16R
TERRE HAUTE    CLOUDY    40  34  79 E3        30.16S

$$

INZ030>032-037>040-046>048-054>057-064-065-271100-
CENTRAL INDIANA

CITY           SKY/WX    TMP DP  RH WIND       PRES   REMARKS
GREENWOOD *+   CLOUDY    42  31  64 CALM      30.19R
INDIANAPOLIS   CLOUDY    41  33  73 CALM      30.17R
-EAGLE CREEK   CLOUDY    41  32  70 SW3       30.17R
KOKOMO +       MOCLDY    35  25  66 SW5       30.18R WCI  31
MT COMFORT *+  CLOUDY    39  32  75 SW5       30.19R
SHELBYVILLE    CLOUDY    41  28  60 SE3       30.18R

$$

INZ033-034-041-042-049-050-058-059-271100-
EAST CENTRAL INDIANA

CITY           SKY/WX    TMP DP  RH WIND       PRES   REMARKS
MUNCIE         CLOUDY    42  26  53 SW6       30.18R

$$

INZ060-061-067>069-081>083-085>088-271100-
SOUTHWEST INDIANA

CITY           SKY/WX    TMP DP  RH WIND       PRES   REMARKS
EVANSVILLE     LGT RAIN  44  37  76 CALM      30.18S
HUNTINGBURG *+ CLOUDY    43  36  75 S6        30.19S

$$

INZ062-063-066-070>080-084-089>092-271100-
SOUTH CENTRAL AND SOUTHEAST INDIANA

CITY           SKY/WX    TMP DP  RH WIND       PRES   REMARKS
BLOOMINGTON    CLOUDY    42  31  64 SE6       30.17R
MADISON *+     CLOUDY    45  30  57 S5        30.23S
SEYMOUR +      CLOUDY    41  28  60 CALM      30.20R

$$





USA.gov is the U.S. government's official web portal to all federal, state and local government web resources and services.